Location: Building B
(39.7295°N, 89.6129°W)
Time: 05:39:26
(UTC+00:00)

Daily predictions for brighter satellites

Satellite Brightness Start Highest point End
(mag) Time Altitude Azimuth Time Altitude Azimuth Time Altitude Azimuth
SL-8 R/B 4.5 01:48:43 10° NW 01:53:22 47° NNE 01:58:01 10° E
Cosmos 2369 Rocket 3.5 01:50:33 10° SE 01:54:25 19° E 01:58:17 10° ENE
STARLINK-1109 4.2 01:52:16 10° WNW 01:56:17 50° SW 02:00:17 10° SSE
Cosmos 332 Rocket 4.0 01:51:43 10° SSW 01:56:37 82° WNW 02:01:32 10° NNE
Cosmos 1452 Rocket 4.1 01:52:18 10° SSW 01:57:31 66° WNW 02:02:49 10° NNE
USA 186 2.8 01:55:31 10° SSW 01:58:02 37° W 02:00:45 10° NNW
STARLINK-1091 4.4 01:57:16 10° WNW 02:01:14 45° SW 02:05:11 10° SSE
EXPRESS MD2 4.1 02:01:08 10° W 02:03:31 40° NNW 02:07:22 10° NE
STARLINK-1097 4.5 01:59:35 10° NW 02:03:33 42° NNE 02:07:30 10° ESE
SJ-6B 3.3 02:02:48 10° S 02:06:28 58° W 02:10:10 10° NNW
USA 267 4.4 02:00:31 10° SSE 02:06:28 37° SW 02:12:28 10° WNW
Lacrosse 5 2.9 02:03:38 10° WNW 02:08:19 39° SW 02:13:00 10° SSE
STARLINK-1099 4.3 02:04:32 10° NW 02:08:33 46° NE 02:12:32 10° ESE
H-2A ROCKET BODY 4.2 02:04:54 10° S 02:09:02 19° SE 02:18:20 10° E
NOSS 2-2 (C) 3.2 02:08:20 10° SW 02:11:53 81° WNW 02:15:39 10° NNE
STARLINK-1104 4.2 02:09:30 10° NW 02:13:33 50° NE 02:17:24 11° ESE
ATLAS 2AS CENTAUR R/B 3.8 02:10:42 10° SSE 02:17:17 30° ESE 02:23:58 10° NE
Aureole 2 Rocket 3.3 02:14:43 10° SW 02:17:41 44° WNW 02:20:32 10° N
STARLINK-1144 4.1 02:14:28 10° NW 02:18:32 54° NE 02:22:10 13° ESE
Meteor 1-23 Rocket 4.4 02:13:35 10° S 02:19:06 55° E 02:24:35 10° NNE
Cosmos 1066 Rocket 4.3 02:16:08 10° S 02:21:20 54° E 02:26:32 10° NNE
MetOp-A 4.4 02:17:57 10° S 02:23:17 71° WSW 02:28:39 10° NNW
STARLINK-1103 3.9 02:19:25 10° NW 02:23:31 60° NE 02:26:57 14° ESE
STARLINK-52 3.0 02:23:14 10° SW 02:26:23 55° SE 02:29:31 10° ENE
STARLINK-1101 3.8 02:24:22 10° NW 02:28:30 65° NE 02:31:43 16° ESE
CZ-2C R/B 4.4 02:25:05 10° N 02:29:31 57° WNW 02:34:02 10° SSW
COSMOS 2455 4.3 02:30:26 14° ESE 02:32:14 16° ESE 02:35:42 10° ENE
Milstar 3 Cent rocket 4.2 02:26:39 10° SSW 02:33:09 30° SSE 02:44:48 10° E
STARLINK-1102 3.7 02:29:22 10° NW 02:33:31 72° NE 02:36:32 18° ESE
USA 238 DEB 4.3 02:29:01 10° NNW 02:36:03 51° NE 02:42:03 16° ESE
USA 238 4.3 02:29:06 10° NNW 02:36:09 51° NE 02:42:09 15° ESE
Cosmos 1741 Rocket 4.4 02:31:48 10° NNW 02:36:58 62° WSW 02:42:06 10° S
Okean 1 Rocket 3.2 02:34:00 10° N 02:38:23 56° E 02:41:35 17° SSE
STARLINK-1111 3.6 02:34:21 10° NW 02:38:30 79° NE 02:41:20 20° SE
GPS 2-04 Rocket1 4.0 02:36:08 10° WSW 02:38:47 21° SSW 02:40:07 17° SSE
Cosmos 1110 Rocket 4.3 02:33:59 10° SSW 02:39:08 71° WNW 02:44:19 10° NNE
Spot 2 Rocket 3.9 02:35:31 16° SE 02:39:13 46° ENE 02:44:02 10° N
SL-4 R/B 2.7 02:37:15 10° WSW 02:41:53 68° NW 02:46:42 10° NE
FALCON 9 DEB 3.3 02:39:00 10° SSW 02:42:16 47° SE 02:45:36 10° ENE
STARLINK-1073 3.6 02:39:18 10° NW 02:43:28 86° NE 02:46:05 22° SE
STARLINK-1121 3.6 02:44:16 10° NW 02:48:25 87° SW 02:50:51 24° SE
SPOT 5 4.3 02:46:23 16° ESE 02:49:24 27° ENE 02:53:51 10° N
SL-27 R/B 3.9 02:46:35 10° N 02:49:32 24° ENE 02:50:47 20° E
IGS 5A 3.9 02:48:39 22° SE 02:50:57 46° ENE 02:54:58 10° N
STARLINK-1106 3.6 02:49:16 10° NW 02:53:25 79° SW 02:55:39 26° SE
ATLAS CENTAUR R/B 2.2 02:52:16 20° SSE 02:54:25 31° ESE 02:58:11 10° NE
STARLINK-1362 4.5 02:56:03 26° ESE 02:56:03 26° ESE 02:59:12 10° ENE
Okean 2 3.8 02:54:11 24° SSE 02:56:21 45° E 03:00:20 10° NNE
CZ-2C R/B 4.3 02:51:51 10° N 02:56:59 38° WNW 03:02:04 10° SW
Terra 3.4 02:55:01 16° E 02:57:09 21° ENE 03:00:40 10° NNE
STARLINK-1112 3.6 02:54:15 10° NW 02:58:23 71° SW 03:00:26 28° SE
Resurs 01 Rocket 2.3 02:54:43 12° S 02:58:46 51° W 03:03:08 10° NNW
USA 245 2.5 02:58:45 43° ESE 02:59:16 53° ENE 03:01:39 10° N
Abrixas rocket 3.0 02:56:50 10° WNW 02:59:30 31° SW 03:00:09 27° S
STARLINK-1373 4.3 03:00:24 28° ESE 03:00:24 28° ESE 03:03:37 10° ENE
STARLINK-1128 3.7 02:59:14 10° NW 03:03:21 64° SW 03:05:13 30° SSE
APEX 4.3 02:57:55 10° S 03:04:27 65° ESE 03:09:51 10° NNE
STARLINK-1390 4.2 03:04:34 31° SE 03:04:34 31° SE 03:08:04 10° ENE
Cosmos 1242 Rocket 3.6 03:04:40 27° ESE 03:05:01 28° E 03:08:13 10° NNE
Cosmos 1943 Rocket 2.4 02:59:44 10° SSW 03:05:15 74° WNW 03:10:52 10° NNE
Cosmos 1302 Rocket 4.0 03:00:01 10° SSW 03:05:18 90° NW 03:10:38 10° NNE
Cosmos 2026 Rocket 4.3 03:02:16 21° SSE 03:06:15 49° E 03:12:19 10° NNE
SPOT 1/Viking Rocket 3.7 03:03:36 25° SE 03:06:33 61° ENE 03:11:37 10° N
STARLINK-1113 3.9 03:04:15 10° WNW 03:08:20 58° SW 03:10:01 32° SSE
STARLINK-1365 4.0 03:07:35 30° SSE 03:08:40 35° SE 03:12:22 10° ENE
STARLINK-1119 4.0 03:09:15 10° WNW 03:13:16 52° SW 03:14:47 33° SSE
CENTAUR R/B 3.6 03:05:31 10° NNW 03:13:30 55° NE 03:19:26 21° ESE
Cosmos 1766 3.2 03:11:33 10° N 03:15:33 80° E 03:17:08 35° SSE
Cosmos 1486 Rocket 4.5 03:10:46 10° N 03:15:52 47° ENE 03:18:11 29° ESE
STARLINK-1114 4.1 03:14:16 10° WNW 03:18:15 47° SW 03:19:35 34° S
ATLAS 3B R/B 4.1 03:14:55 10° NNW 03:20:44 29° NE 03:25:45 13° E
STARLINK-1130 (DARKSAT) 4.3 03:19:16 10° WNW 03:23:11 42° SW 03:24:21 34° S
Cosmos 1992 Rocket 4.2 03:21:20 30° SSE 03:23:30 49° ESE 03:28:31 10° NNE
STARLINK-1338 3.6 03:23:31 45° SSE 03:23:59 48° SE 03:27:46 10° ENE
STARLINK-1209 4.3 03:21:53 10° NW 03:25:08 36° NNE 03:26:15 28° ENE
Cosmos 1656 Rocket 3.7 03:22:48 24° S 03:26:06 57° ESE 03:31:34 10° NNE
STARLINK-1084 4.4 03:24:18 10° WNW 03:28:09 38° SW 03:29:08 33° SSW
Meteor 1-21 4.3 03:25:54 30° SSE 03:28:37 60° E 03:34:08 10° NNE
STARLINK-1371 3.4 03:31:19 46° S 03:32:06 57° SE 03:35:59 10° ENE
NOSS 3-2 (C) 4.1 03:26:33 10° NNW 03:34:16 76° NE 03:39:06 29° SE
Cosmos 292 Rocket 3.9 03:30:53 15° SSW 03:34:50 75° WNW 03:39:42 10° NNE
SL-8 R/B 4.2 03:31:20 10° WNW 03:35:55 46° SW 03:37:06 38° S
STARLINK-1341 3.4 03:35:17 46° SSW 03:36:13 63° SE 03:40:07 10° NE
STARLINK-1234 4.1 03:33:15 10° NW 03:36:39 42° NE 03:37:24 36° ENE
Cosmos 2369 Rocket 2.8 03:32:22 10° SW 03:37:55 56° WNW 03:43:29 10° NNE
STARLINK-1228 4.0 03:35:15 10° NW 03:38:45 45° NE 03:39:30 38° ENE
ATLAS 3B CENTAUR R/B 3.8 03:23:50 10° WSW 03:38:48 42° SSW 03:42:24 30° SSE
NOSS 3-4 (A) 3.3 03:33:58 10° SSW 03:39:52 90° NNW 03:46:06 10° NE
NOSS 3-4 (C) 3.3 03:34:04 10° SSW 03:39:58 89° ESE 03:46:13 10° NE
STARLINK-1374 3.3 03:39:17 45° SSW 03:40:19 68° SE 03:44:14 10° NE
ERS-1 Rocket 2.9 03:39:13 38° SSE 03:41:11 88° W 03:46:15 10° NNW
STARLINK-1187 3.9 03:39:24 10° NW 03:42:32 39° NE 03:42:52 38° NE
BREEZE-M DEB (TANK) 3.6 03:31:28 10° NW 03:42:41 83° NE 03:44:45 36° ESE
STARLINK-1339 3.3 03:43:14 41° SSW 03:44:28 75° SE 03:48:24 10° NE
Cosmos 1975 Rocket 3.7 03:42:41 23° SSW 03:45:12 54° W 03:49:31 10° N
Cosmos 1025 Rocket 3.3 03:45:13 45° ESE 03:45:26 46° E 03:49:34 10° NNE
STARLINK-1320 3.7 03:46:51 43° NNE 03:46:51 43° NNE 03:49:06 10° NE
STARLINK-1322 3.7 03:47:10 43° NNE 03:47:10 43° NNE 03:49:27 10° NE
STARLINK-1324 3.8 03:47:31 42° NNE 03:47:31 42° NNE 03:49:47 10° NE
STARLINK-1294 3.9 03:47:54 40° NNE 03:47:54 40° NNE 03:50:03 10° NE
STARLINK-1261 3.7 03:48:09 43° NNE 03:48:09 43° NNE 03:50:27 10° NE
STARLINK-1325 3.7 03:48:28 44° NNE 03:48:28 44° NNE 03:50:48 10° NE
STARLINK-1333 3.7 03:48:50 44° NNE 03:48:50 44° NNE 03:51:09 10° NE
STARLINK-1334 3.8 03:49:10 43° NNE 03:49:10 43° NNE 03:51:28 10° NE
STARLINK-1377 3.3 03:47:12 38° SW 03:48:38 81° SE 03:52:34 10° NE
STARLINK-1326 3.8 03:49:30 43° NNE 03:49:30 43° NNE 03:51:48 10° NE
STARLINK-1323 3.7 03:49:47 45° NNE 03:49:47 45° NNE 03:52:08 10° NE
STARLINK-1349 3.7 03:50:07 44° NNE 03:50:07 44° NNE 03:52:27 10° NE
STARLINK-1336 3.7 03:50:26 45° NNE 03:50:26 45° NNE 03:52:47 10° NE
STARLINK-1331 3.7 03:50:47 45° NNE 03:50:47 45° NNE 03:53:09 10° NE
STARLINK-1344 3.7 03:51:05 45° NNE 03:51:05 45° NNE 03:53:28 10° NE
STARLINK-1343 3.7 03:51:25 46° NNE 03:51:25 46° NNE 03:53:50 10° NE
STARLINK-1346 3.6 03:51:36 49° NNE 03:51:36 49° NNE 03:54:09 10° NE
STARLINK-1328 3.7 03:52:07 45° NNE 03:52:07 45° NNE 03:54:31 10° NE
STARLINK-1354 3.7 03:52:25 45° NNE 03:52:25 45° NNE 03:54:50 10° NE
STARLINK-1347 3.7 03:52:43 46° NNE 03:52:43 46° NNE 03:55:08 10° NE
STARLINK-1357 3.7 03:53:04 46° NNE 03:53:04 46° NNE 03:55:32 10° NE
STARLINK-1335 3.7 03:53:22 46° NNE 03:53:22 46° NNE 03:55:50 10° NE
STARLINK-1353 3.3 03:51:07 33° SW 03:52:47 88° SE 03:56:45 10° NE
STARLINK-1327 3.8 03:53:44 46° NNE 03:53:44 46° NNE 03:56:11 10° NE
STARLINK-1340 3.7 03:54:03 46° NNE 03:54:03 46° NNE 03:56:31 10° NE
STARLINK-1356 3.7 03:54:23 46° N 03:54:23 46° N 03:56:52 10° NE
STARLINK-1345 3.7 03:54:41 46° N 03:54:41 46° N 03:57:12 10° NE
Cosmos 1470 2.7 03:50:21 10° N 03:54:12 65° E 03:54:15 65° E
STARLINK-1355 3.7 03:55:00 47° N 03:55:00 47° N 03:57:31 10° NE
STARLINK-1321 3.8 03:55:20 46° N 03:55:20 46° N 03:57:51 10° NE
STARLINK-1358 3.7 03:55:41 47° N 03:55:41 47° N 03:58:13 10° NE
STARLINK-1332 3.7 03:55:58 47° N 03:55:58 47° N 03:58:31 10° NE
Cosmos 1726 3.8 03:52:37 10° NNE 03:55:12 23° ENE 03:55:12 23° ENE
STARLINK-1348 3.8 03:56:18 46° N 03:56:18 46° N 03:58:51 10° NE
Cosmos 1867 3.8 03:50:33 10° NNW 03:55:59 62° NE 03:57:37 42° ESE
STARLINK-1330 3.8 03:56:39 47° N 03:56:39 47° N 03:59:12 10° NE
STARLINK-1363 3.8 03:56:57 46° N 03:56:57 46° N 03:59:31 10° NE
Cosmos 968 Rocket 3.3 03:51:24 10° NNW 03:56:33 86° ENE 03:57:51 52° SSE
STARLINK-1337 3.8 03:57:17 47° N 03:57:17 47° N 03:59:53 10° NE
STARLINK-1375 3.4 03:55:08 30° SW 03:56:59 85° NW 04:00:56 10° NE
STARLINK-1342 3.8 03:57:38 47° N 03:57:38 47° N 04:00:14 10° NE
STARLINK-1364 3.8 03:57:57 47° N 03:57:57 47° N 04:00:34 10° NE
STARLINK-1376 3.8 03:58:17 46° N 03:58:17 46° N 04:00:53 10° NE
STARLINK-1360 3.8 03:58:35 47° N 03:58:35 47° N 04:01:14 10° NE
STARLINK-1361 3.8 03:58:57 46° N 03:58:57 46° N 04:01:35 10° NE
STARLINK-1367 3.8 03:59:10 48° N 03:59:10 48° N 04:01:53 10° NE
STARLINK-1366 3.8 03:59:34 46° N 03:59:34 46° N 04:02:14 10° NE
Cosmos 1340 Rocket 4.1 03:57:12 10° NNE 04:00:36 28° ENE 04:00:36 28° ENE
STARLINK-1350 3.5 03:59:06 27° WSW 04:01:09 79° NW 04:05:06 10° NE
ATLAS 5 CENTAUR R/B 2.0 03:53:01 10° SW 04:01:11 83° SE 04:04:01 10° NE
In-Cosmos 22 4.5 04:04:12 42° ESE 04:04:41 43° E 04:09:40 10° NNE
STARLINK-1352 3.6 04:03:09 24° WSW 04:05:24 72° NW 04:09:21 10° NE
RESURS DK-1 3.4 04:08:26 33° ENE 04:08:26 33° ENE 04:11:08 10° NE
ATLAS 2AS CENTAUR R/B 3.4 03:59:57 10° SW 04:07:49 64° NW 04:15:45 10° NNE
STARLINK-1368 3.8 04:07:12 21° WSW 04:09:40 66° NW 04:13:36 10° NE
STARLINK-1369 3.9 04:11:14 19° WSW 04:13:56 61° NW 04:17:51 10° NE
Cosmos 1953 2.9 04:11:20 10° N 04:14:45 45° ENE 04:14:45 45° ENE
Cosmos 1271 Rocket 3.4 04:16:43 45° WSW 04:17:13 48° WNW 04:21:03 10° N
Cosmos 1455 Rocket 4.0 04:13:19 10° NNW 04:17:21 39° W 04:18:11 35° WSW
COSMOS 2455 2.9 04:13:27 22° SW 04:17:25 75° WNW 04:23:28 10° NNE
STARLINK-1372 4.1 04:15:17 17° WSW 04:18:13 56° NW 04:22:07 10° NE
Cosmos 1417 Rocket 4.5 04:15:16 10° N 04:21:39 88° W 04:23:35 48° S
STARLINK-1378 4.2 04:19:18 14° WSW 04:22:30 52° NW 04:26:22 10° NE
Thor Agena Rocket 3.7 04:17:44 10° NNE 04:22:55 55° E 04:23:11 55° ESE
Meteor 2-19 Rocket 4.4 04:22:19 52° SE 04:23:37 65° E 04:29:40 10° NNE
STARLINK-1379 4.4 04:23:24 12° WSW 04:26:50 48° NW 04:30:41 10° NE
SPOT 5 4.1 04:25:37 31° SW 04:27:13 38° W 04:32:13 10° NNW
COSMOS 2487 3.5 04:25:16 10° NNW 04:27:45 43° N 04:27:45 43° N
Cosmos 1707 3.4 04:28:50 50° W 04:28:50 50° W 04:32:37 10° N
ATLAS CENTAUR R/B 3.4 04:29:33 10° WSW 04:33:18 27° NW 04:36:53 10° N
Cosmos 1758 4.1 04:29:37 10° NNW 04:33:29 46° W 04:33:29 46° W
Terra 2.6 04:33:54 38° WSW 04:34:36 40° W 04:39:06 10° NNW
Meteor 2-10 3.8 04:30:04 10° N 04:35:07 86° W 04:35:34 74° S
Cosmos 1503 Rocket 4.3 04:32:15 10° NNW 04:37:29 57° WSW 04:38:11 53° SW
EO 1 Del DPAF 4.1 04:37:09 10° NNE 04:39:53 46° NNE 04:39:53 46° NNE
STARLINK-1204 4.5 04:38:29 10° NW 04:42:28 43° NNE 04:42:36 43° NE
Cosmos 1536 Rocket 4.4 04:44:45 39° W 04:45:13 40° WNW 04:49:22 10° N
STARLINK-1238 4.4 04:43:27 10° NW 04:47:24 47° NNE 04:47:24 47° NNE
Meteor 2-15 4.3 04:41:58 10° N 04:48:07 75° E 04:49:06 62° SE
SeaSat 1 2.7 04:45:49 10° NNE 04:50:08 55° E 04:50:08 55° E
Cosmos 2297 Rocket 3.9 04:46:50 10° N 04:51:16 23° NE 04:53:22 19° E
STARLINK-1201 4.3 04:48:24 10° NW 04:52:10 50° NNE 04:52:10 50° NNE
Cosmos 2084 4.4 04:51:59 38° W 04:53:03 46° NW 04:57:21 10° NNE
S3M 4.2 04:47:37 10° NNW 04:53:44 61° W 04:55:12 49° SW
Cosmos 2315 Rocket 3.9 04:50:54 10° N 04:57:06 69° E 04:58:03 60° SE
STARLINK-1206 4.3 04:53:21 10° NW 04:56:57 52° N 04:56:57 52° N
STARLINK-1205 4.4 04:58:19 10° NW 05:01:43 51° N 05:01:43 51° N
CENTAUR R/B 3.9 04:56:33 10° NW 05:04:13 41° WSW 05:06:36 34° SW
STARLINK-1218 4.4 05:03:18 10° NW 05:06:32 49° NNW 05:06:32 49° NNW
Meteor 2-15 Rocket 4.3 05:03:58 10° N 05:10:08 88° E 05:10:54 70° SSE
Cosmos 1908 4.4 05:07:37 10° N 05:10:15 42° NNW 05:10:15 42° NNW
ATLAS 3B R/B 2.7 05:05:06 10° NW 05:11:54 66° WSW 05:13:00 58° SSW
Cosmos 1697 Rocket 4.3 05:15:48 22° E 05:15:48 22° E 05:19:12 10° NE
Meteor 1-16 Rocket 4.5 05:10:28 10° NNW 05:15:42 51° W 05:15:58 51° WSW
Exosat Rocket 4.3 05:08:48 10° NNW 05:16:50 59° WSW 05:17:54 53° SW
Spot 4 4.1 05:18:52 60° W 05:18:52 60° W 05:23:22 10° NNW
Cosmos 2058 Rocket 3.9 05:16:14 10° N 05:19:55 46° NE 05:19:55 46° NE
Cosmos 1606 Rocket 4.1 05:16:34 10° N 05:20:06 57° NNW 05:20:06 57° NNW
ALOS 2 3.1 05:23:18 58° NNE 05:23:18 58° NNE 05:26:58 10° N
Cosmos 1300 4.4 05:22:29 10° N 05:24:49 30° NE 05:24:49 30° NE
ATLAS CENTAUR R/B 4.1 05:24:48 10° N 05:26:05 15° NE 05:26:05 15° NE
Cosmos 2227 Rocket 3.2 05:23:55 10° N 05:29:13 38° ENE 05:30:28 34° E
Cosmos 1674 4.4 05:30:36 28° NW 05:30:36 28° NW 05:33:09 10° NNW
Meteor 2-5 Rocket 3.9 05:41:39 55° W 05:42:07 57° WNW 05:47:41 10° N
Meteor 2-21 4.4 05:43:42 66° SW 05:44:26 74° W 05:50:39 10° N
Cosmos 921 Rocket 4.1 05:45:08 40° NW 05:45:08 40° NW 05:48:49 10° N
Cosmos 1763 Rocket 4.3 05:45:56 40° ENE 05:45:56 40° ENE 05:49:54 10° NNE
Cosmos 1244 Rocket 4.4 05:45:59 67° SW 05:46:42 74° W 05:52:53 10° N
Cosmos 2228 4.4 05:42:49 10° NNW 05:45:44 32° WNW 05:45:44 32° WNW
FALCON 9 R/B 3.8 05:53:12 31° ESE 05:53:12 31° ESE 05:59:57 10° ESE
Cosmos 1745 Rocket 4.0 05:50:15 58° ESE 05:50:42 60° E 05:56:43 10° NNE
Lacrosse 4 Rocket 3.2 05:48:10 10° N 05:51:46 25° NE 05:52:03 25° ENE
BREEZE-M DEB (TANK) 3.8 05:49:45 10° W 05:54:22 29° NNW 05:56:48 10° NE
Okean 1-7 Rocket 4.4 05:55:39 46° NW 05:55:39 46° NW 05:59:27 10° N
BREEZE-M DEB (TANK) 3.6 05:53:14 10° NW 05:56:43 66° NNE 06:03:35 10° ESE
Cosmos 1626 4.0 06:00:57 28° NNW 06:00:57 28° NNW 06:03:07 10° N
CZ-4C R/B 2.0 06:00:11 78° NE 06:00:11 78° NE 06:05:32 10° NE
Cosmos 1455 4.4 05:59:13 10° NNE 06:01:17 19° ENE 06:01:17 19° ENE
Helios 1A 3.9 06:04:48 46° NNW 06:04:48 46° NNW 06:07:49 10° NNW
SL-08 R/B 4.4 06:05:43 66° SW 06:06:28 74° W 06:12:50 10° N
Cosmos 1980 Rocket 3.0 06:12:35 37° E 06:12:35 37° E 06:17:25 10° NE
SJ 16-02 1.9 06:09:17 10° NNW 06:12:52 55° N 06:12:52 55° N
CZ-4 R/B 4.1 06:09:41 10° NNE 06:13:44 60° NE 06:13:44 60° NE
Cosmos 1386 Rocket 4.3 06:14:53 75° S 06:15:27 87° E 06:21:43 10° N
Cosmos 2369 3.6 06:21:00 80° ESE 06:21:01 80° ESE 06:26:42 10° NNE
Cosmos 540 Rocket 4.0 06:23:15 46° E 06:23:15 46° E 06:27:44 10° NNE
Cosmos 1758 Rocket 4.4 06:26:51 44° ENE 06:26:51 44° ENE 06:30:22 10° NNE
Cosmos 468 Rocket 4.3 06:33:03 54° WNW 06:33:07 54° WNW 06:38:09 10° N
Cosmos 2297 Rocket 2.5 06:30:08 10° NNW 06:35:10 51° W 06:35:10 51° W
Cosmos 2360 4.0 06:35:49 79° SE 06:36:02 81° ESE 06:41:45 10° NNE
Cosmos 2219 4.0 06:33:05 10° NW 06:37:35 38° W 06:37:35 38° W
Cosmos 1709 Rocket 3.8 06:38:36 68° SSE 06:39:22 80° E 06:45:33 10° N
USA 215 3.4 06:35:30 22° ESE 06:40:01 73° NE 06:46:33 10° NW
SL-16 R/B 4.0 06:39:30 15° ESE 06:43:29 30° ENE 06:48:44 10° N
Cosmos 1953 Rocket 4.5 06:44:45 41° ENE 06:44:45 41° ENE 06:48:31 10° NNE
Cosmos 1937 Rocket 3.4 06:40:14 10° NNW 06:45:32 87° ENE 06:45:39 85° ESE
SL-19 R/B 4.4 06:41:13 10° NNE 06:46:55 64° ESE 06:47:38 59° SE
STARLINK-1283 4.5 06:49:10 47° NNE 06:49:10 47° NNE 06:52:17 10° NE
Cosmos 2082 3.5 06:43:53 10° NNW 06:49:32 83° WSW 06:49:50 79° SSW
Cosmos-2242 3.6 06:45:33 10° N 06:49:17 52° NE 06:49:17 52° NE
Cosmos 2322 Rocket 4.0 06:49:46 17° ESE 06:50:47 18° E 06:54:22 10° ENE
GP-B 4.5 06:46:59 10° NNE 06:50:55 30° E 06:51:08 30° E
Meteor 2-1 Rocket 4.3 06:46:19 10° NNW 06:51:47 59° W 06:51:52 59° W
Cosmos 1898 Rocket 3.8 06:47:56 10° NNW 06:52:42 55° W 06:52:42 55° W
Cosmos 2278 3.6 06:57:14 68° WSW 06:57:49 75° WNW 07:03:30 10° NNE
Cosmos 1697 Rocket 3.2 06:57:30 43° W 06:58:28 48° WNW 07:03:57 10° NNE
Nadezhda 1 Rocket 4.5 06:52:50 10° NNW 06:58:44 45° W 06:59:22 43° WSW
Cosmos 2285 Rocket 3.9 06:55:57 10° NNW 07:02:19 88° WSW 07:03:42 58° SSE
Cosmos 1814 Rocket 4.0 07:06:54 69° WSW 07:07:18 73° WNW 07:12:38 10° NNE
BREEZE-M DEB (TANK) 4.0 07:07:08 10° NW 07:09:12 21° NNW 07:09:12 21° NNW
Helios 1B rocket 3.9 07:07:41 10° N 07:10:53 28° WNW 07:10:53 28° WNW
Resurs 1-4 Rocket 2.7 07:06:57 10° NNE 07:12:03 45° E 07:13:02 41° SE
Cosmos 2227 Rocket 3.4 07:08:15 10° NW 07:12:15 28° W 07:12:15 28° W
IRAS Rocket 4.1 07:15:35 64° S 07:16:29 82° WSW 07:22:03 10° NNW
Cosmos 841 Rocket 3.9 07:18:02 45° W 07:18:38 48° WNW 07:23:40 10° N
Cosmos 1825 Rocket 4.2 07:20:23 45° WNW 07:20:23 45° WNW 07:24:11 10° N
STARLINK-1306 4.3 07:23:15 47° E 07:23:15 47° E 07:26:34 10° ENE
NOSS 2-1 (D) 4.4 07:23:38 32° ENE 07:23:38 32° ENE 07:25:52 10° NE
STARLINK-1305 4.3 07:25:10 45° E 07:25:10 45° E 07:28:24 10° ENE
SL-16 R/B 2.9 07:24:07 38° SE 07:25:23 43° ESE 07:30:44 10° NE
Spot 1 4.3 07:26:03 68° WSW 07:26:14 69° WSW 07:31:17 10° NNW
Cosmos 2074 Rocket 4.1 07:24:26 46° SSE 07:26:22 73° E 07:32:38 10° N
STARLINK-1262 4.1 07:29:59 52° E 07:29:59 52° E 07:33:26 10° ENE
Lacrosse 4 Rocket 3.4 07:26:46 10° NW 07:28:20 19° WNW 07:28:20 19° WNW
Cosmos 2298 Rocket 4.0 07:28:23 10° NNW 07:33:43 84° ENE 07:35:12 49° SSE
STARLINK-1300 3.9 07:34:47 61° E 07:34:47 61° E 07:38:26 10° NE
Cosmos 1455 4.3 07:34:41 10° NW 07:36:11 18° WNW 07:36:11 18° WNW
STARLINK-1295 3.6 07:39:33 70° E 07:39:33 70° E 07:43:25 10° NE
CZ-2D R/B 2.0 07:35:22 10° NNE 07:40:37 82° ESE 07:41:49 54° S
BREEZE-M DEB (TANK) 3.0 07:41:43 58° SSW 07:42:31 71° SE 07:53:46 10° ENE
SL-4 R/B 3.8 07:39:39 10° NW 07:44:10 37° NNE 07:48:31 10° E
STARLINK-1287 3.5 07:44:19 81° ESE 07:44:19 81° ESE 07:48:23 10° NE
DELTA 2 DEB (DPAF) 4.3 07:45:58 54° W 07:45:58 54° W 07:50:15 10° NNW
STARLINK-1299 3.6 07:47:47 73° W 07:48:06 79° NW 07:52:22 10° NE
Cosmos 2360 Rocket 3.6 07:46:14 20° SE 07:48:44 28° ESE 07:53:27 10° NE
CZ-4C R/B 4.4 07:45:45 10° WNW 07:49:20 18° NNW 07:53:19 10° N
Cosmos 2184 Rocket 3.9 07:48:41 45° SSW 07:50:41 76° W 07:56:52 10° N
STARLINK-1302 3.5 07:53:53 75° WSW 07:54:11 83° NW 07:58:21 10° NE
Cosmos 1980 Rocket 3.4 07:54:19 25° W 07:56:17 31° WNW 08:01:16 10° N
Cosmos 1076 Rocket 4.3 07:55:10 33° SE 07:56:34 45° E 08:00:44 10° NNE
Cosmos 1892 3.5 07:56:58 38° SE 07:57:42 43° E 08:01:19 10° NNE
CRYOSAT 2 4.4 07:53:38 10° N 07:58:33 79° E 08:00:05 44° S
STARLINK-1273 3.6 07:58:40 65° W 07:59:10 76° NW 08:03:19 10° NE
Cosmos 1610 Rocket 4.4 07:56:59 37° S 07:59:36 85° E 08:05:49 10° N
CBERS-1 4.3 07:55:26 10° NNE 08:00:31 61° ESE 08:02:34 35° SSE
Cosmos 1869 3.5 07:57:36 10° N 08:01:27 63° E 08:02:21 46° SE
MOZ.5/SAFIR/RUBIN 5/SL-8 4.1 08:02:41 44° WSW 08:02:54 44° W 08:07:22 10° NNW
Timation 1 Rocket 4.4 07:57:54 10° NNW 08:03:44 58° WSW 08:05:50 38° SSW
STARLINK-1288 3.7 08:03:26 56° W 08:04:09 69° NW 08:08:17 10° NE
STARLINK-64 4.4 08:04:31 32° WNW 08:05:12 36° NNW 08:08:33 10° NE
STARLINK-1308 3.8 08:08:15 47° W 08:09:10 62° NW 08:13:17 10° NE
NOSS 2-1 (E) 3.3 08:11:45 49° WNW 08:11:58 50° NW 08:15:25 10° NNE
STARLINK-61 3.4 08:12:43 59° WSW 08:13:21 77° NW 08:17:17 10° NE
Cosmos 1400 Rocket 4.1 08:10:11 10° NNW 08:13:16 27° W 08:13:16 27° W
STARLINK-25 4.0 08:14:07 37° SE 08:14:07 37° SE 08:17:12 10° ENE
Cosmos 2263 Rocket 2.1 08:11:13 10° NNW 08:16:47 68° WSW 08:19:55 26° S
STARLINK-1304 4.1 08:17:48 36° W 08:19:07 53° NW 08:23:11 10° NE
STARLINK-1278 4.4 08:18:56 30° W 08:20:34 46° NNW 08:24:42 10° NE
IRIDIUM 106 4.3 08:18:52 30° S 08:21:30 86° E 08:26:44 10° N
STARLINK-1280 4.5 08:20:42 29° W 08:22:25 45° NNW 08:26:31 10° NE
ADEOS II 2.1 08:17:13 10° NNE 08:22:30 76° ESE 08:25:16 29° S
CZ-4B R/B 3.8 08:17:56 10° N 08:23:05 57° WNW 08:25:12 34° SW
USA 215 3.9 08:22:46 29° SW 08:23:20 30° SW 08:28:56 10° WNW
Cosmos 2154 Rocket 4.1 08:21:54 32° SSW 08:24:52 64° W 08:31:04 10° N
Shenzhou-11 Module 2.8 08:25:20 37° N 08:25:20 37° N 08:27:36 10° ENE
NPP 4.2 08:20:37 10° N 08:25:44 45° WNW 08:27:55 30° WSW
STARLINK-1007 4.4 08:25:30 33° SSE 08:26:29 38° SE 08:30:21 10° ENE
SL-16 R/B 2.9 08:24:35 31° SW 08:26:52 43° W 08:32:43 10° NNW
STARLINK-81 3.6 08:26:24 44° SSE 08:26:55 49° SE 08:30:26 10° ENE
IDEFIX/ARIANE 42P 4.4 08:22:54 10° NE 08:27:16 26° E 08:31:36 10° SSE
STARLINK-54 3.4 08:28:09 49° S 08:28:46 58° SE 08:32:19 10° ENE
Cosmos 2221 2.8 08:25:48 10° NNW 08:30:02 51° W 08:31:16 38° SW
STARLINK-77 3.6 08:29:34 45° S 08:30:13 53° SE 08:33:45 10° ENE
IRS-1D 3.5 08:25:03 10° N 08:30:17 71° WNW 08:32:45 31° SSW
STARLINK-1048 4.3 08:30:16 33° S 08:31:26 42° SE 08:35:21 10° ENE
Cosmos 1408 2.7 08:31:51 36° S 08:33:13 74° E 08:36:54 10° N
Cosmos 1842 Rocket 4.2 08:29:36 10° NNW 08:33:44 38° W 08:34:41 33° WSW
Cosmos 2322 Rocket 2.4 08:31:35 30° SW 08:34:15 60° WNW 08:39:49 10° NNE
Cosmos 1825 3.0 08:32:28 23° SSE 08:34:30 47° E 08:38:07 10° NNE
IRS-1C 4.2 08:29:37 10° NNE 08:34:59 80° ESE 08:38:17 24° S
STARLINK-79 3.4 08:34:16 45° S 08:35:05 60° SE 08:38:40 10° ENE
In-Cosmos 22 Rocket 4.2 08:33:14 30° SSW 08:36:01 64° W 08:41:30 10° N
STARLINK-1049 4.1 08:35:03 33° S 08:36:24 47° SE 08:40:23 10° ENE
STARLINK-78 3.3 08:35:49 45° SSW 08:36:41 63° SE 08:40:16 10° NE
ARIANE 5 R/B 2.8 08:33:13 10° NNE 08:38:11 63° ESE 08:41:40 19° S
STARLINK-57 3.2 08:37:28 45° SSW 08:38:25 70° SE 08:42:01 10° NE
STARLINK-49 3.3 08:38:57 43° SSW 08:39:56 68° SE 08:43:32 10° NE
STARLINK-1051 4.0 08:39:48 33° SSW 08:41:20 52° SE 08:45:22 10° ENE
STARLINK-27 3.2 08:40:31 42° SSW 08:41:33 71° SE 08:45:09 10° NE
STARLINK-74 3.2 08:42:04 41° SSW 08:43:10 73° SE 08:46:47 10° NE
STARLINK-39 3.2 08:43:32 40° SW 08:44:41 76° SE 08:48:17 10° NE
STARLINK-31 3.1 08:45:04 39° SW 08:46:16 80° SE 08:49:52 10° NE
STARLINK-69 3.1 08:46:44 37° SW 08:48:02 89° NNW 08:51:38 10° NE
Cosmos 1315 Rocket 3.7 08:44:58 10° NNW 08:48:25 29° W 08:49:04 28° WSW
STARLINK-21 3.1 08:48:11 37° SW 08:49:30 87° SE 08:53:06 10° NE
Cosmos 2058 3.7 08:48:46 28° WSW 08:50:14 37° WNW 08:54:10 10° N
STARLINK-1028 3.7 08:49:23 30° SSW 08:51:17 64° SE 08:55:23 10° NE
STARLINK-45 3.2 08:49:56 34° WSW 08:51:21 81° NW 08:54:57 10° NE
Resurs 1-4 Rocket 3.6 08:47:29 10° NNW 08:51:33 23° WNW 08:54:06 16° WSW
STARLINK-70 3.2 08:51:10 34° SW 08:52:37 82° NW 08:56:12 10° NE
Nadezhda 3 Rocket 4.4 08:47:44 10° NNW 08:53:40 44° W 08:57:47 20° SSW
STARLINK-1010 3.7 08:52:24 28° SW 08:54:31 73° SE 08:58:45 10° NE
STARLINK-76 3.2 08:53:00 32° SW 08:54:32 84° NW 08:58:08 10° NE
STARLINK-23 3.2 08:54:26 31° SW 08:56:00 81° NW 08:59:35 10° NE
STARLINK-1021 3.6 08:54:13 28° SW 08:56:17 71° SE 09:00:25 10° NE
Cosmos 2366 rocket 4.2 08:50:31 11° S 08:56:26 74° E 09:02:44 10° N
STARLINK-32 3.2 08:55:55 30° WSW 08:57:32 78° NW 09:01:07 10° NE
Cosmos 2237 4.3 08:54:21 22° SSW 08:58:05 72° WNW 09:03:49 10° NNE
STARLINK-40 3.2 08:57:35 29° WSW 08:59:17 75° NW 09:02:53 10° NE
STARLINK-44 3.3 08:59:01 28° WSW 09:00:46 73° NW 09:04:20 10° NE
STARLINK-1019 3.6 08:58:57 26° SW 09:01:13 79° SE 09:05:21 10° NE
STARLINK-37 3.4 09:00:54 26° WSW 09:02:47 64° NW 09:06:21 10° NE
CZ-4C R/B 4.3 08:59:21 10° SE 09:02:49 43° ENE 09:06:17 10° N
GEOS 3 Rocket 3.8 08:58:03 10° SSE 09:03:01 48° WSW 09:08:05 10° NW
STARLINK-36 3.3 09:02:01 26° WSW 09:03:53 68° NW 09:07:26 10° NE
STARLINK-1012 3.6 09:03:44 24° SW 09:06:11 86° SE 09:10:21 10° NE
STARLINK-63 3.5 09:05:30 23° WSW 09:07:33 59° NW 09:11:06 10° NE
Spot 4 Rocket 4.0 09:03:08 10° NNE 09:08:18 87° ESE 09:12:58 13° SSW
COBE Rocket 3.9 09:03:22 10° S 09:08:23 72° W 09:13:33 10° NNW
STARLINK-35 3.5 09:06:58 22° WSW 09:09:03 60° NW 09:12:37 10° NE
SL-16 R/B 3.5 09:05:59 15° WSW 09:09:38 27° NW 09:14:26 10° N
STARLINK-51 3.6 09:08:33 21° WSW 09:10:42 58° NW 09:14:14 10° NE
Cosmos 1844 Rocket 3.0 09:06:05 10° NNW 09:11:41 71° ENE 09:17:13 10° SSE
COSMOS 2428 3.6 09:06:59 10° S 09:12:20 44° ESE 09:17:42 10° NE
STARLINK-30 3.6 09:10:06 21° WSW 09:12:20 56° NW 09:15:52 10° NE
STARLINK-72 3.7 09:11:39 20° WSW 09:13:56 54° NW 09:17:28 10° NE
USA 229 DEB 4.3 09:07:21 10° NW 09:14:11 42° WSW 09:21:15 10° S
USA 229 4.3 09:07:28 10° NW 09:14:18 42° WSW 09:21:23 10° S
STARLINK-1026 3.6 09:13:18 20° SW 09:16:08 79° NW 09:20:17 10° NE
Cosmos 1408 Rocket 4.1 09:12:42 10° S 09:16:55 57° E 09:21:09 10° NNE
STARLINK-59 3.9 09:14:50 18° WSW 09:17:16 48° NW 09:20:45 10° NE
STARLINK-71 4.0 09:14:26 17° WSW 09:17:18 55° NW 09:21:17 10° NE
STARLINK-56 3.8 09:16:16 17° WSW 09:18:44 49° NW 09:22:14 10° NE
Meteor 1-28 Rocket 3.3 09:16:04 10° S 09:19:45 55° W 09:23:26 10° NNW
CZ-2D R/B 4.1 09:17:43 10° NW 09:19:56 13° WNW 09:22:09 10° W
Cosmos 1538 Rocket 4.1 09:15:42 14° SSW 09:20:23 83° WNW 09:25:48 10° NNE
STARLINK-73 3.9 09:17:52 17° WSW 09:20:25 47° NW 09:23:54 10° NE
STARLINK-50 3.9 09:17:53 17° WSW 09:20:36 51° NW 09:24:17 10° NE
STARLINK-1013 3.7 09:18:06 18° WSW 09:21:08 72° NW 09:25:17 10° NE
STARLINK-38 3.9 09:19:25 16° WSW 09:22:01 45° NW 09:25:29 10° NE
STARLINK-68 4.1 09:19:35 15° WSW 09:22:18 43° NW 09:25:48 10° NE
STARLINK-60 3.4 09:19:31 10° WNW 09:22:29 36° SW 09:25:26 10° SSE
CZ-2D R/B 3.6 09:18:54 10° N 09:23:08 63° WNW 09:27:02 12° SSW
NOSS 3-1 (A) 4.3 09:15:54 10° NW 09:23:32 54° WSW 09:32:01 10° S
STARLINK-65 4.0 09:20:59 15° WSW 09:23:39 44° NW 09:27:06 10° NE
SL-4 R/B 2.4 09:19:26 10° WNW 09:24:02 50° SW 09:28:23 10° SSE
Cosmos 1727 Rocket 4.2 09:18:04 10° N 09:24:15 76° E 09:30:25 10° SSE
Cosmos 864 Rocket 4.5 09:18:52 10° SSW 09:24:57 69° W 09:31:06 10° N
STARLINK-53 4.1 09:22:36 14° WSW 09:25:22 41° NW 09:28:47 10° NE
STARLINK-1009 3.8 09:22:51 16° WSW 09:26:06 65° NW 09:30:13 10° NE
SL-08 R/B 3.9 09:25:18 11° SSW 09:29:24 34° W 09:33:36 10° NNW
STARLINK-1444 2.9 09:28:50 10° WNW 09:30:55 30° SW 09:33:08 10° SSE
STARLINK-1015 3.9 09:27:39 14° WSW 09:31:06 60° NW 09:35:12 10° NE
STARLINK-1452 3.0 09:29:28 10° WNW 09:31:33 29° SW 09:33:44 10° SSE
Cosmos 1606 2.6 09:27:52 10° N 09:31:39 83° W 09:35:27 10° S
STARLINK-1450 3.0 09:30:26 10° WNW 09:32:26 27° SW 09:34:32 10° SSE
Cosmos 2360 Rocket 2.9 09:28:00 13° SW 09:32:30 39° WNW 09:37:47 10° N
STARLINK-1392 3.0 09:30:37 10° WNW 09:32:37 27° SW 09:34:44 10° SSE
STARLINK-1415 3.0 09:30:38 10° WNW 09:32:38 27° SW 09:34:44 10° SSE
STARLINK-1399 3.0 09:30:38 10° WNW 09:32:38 27° SW 09:34:45 10° SSE
STARLINK-1394 3.0 09:30:39 10° WNW 09:32:39 27° SW 09:34:46 10° SSE
STARLINK-1395 3.0 09:30:40 10° WNW 09:32:40 27° SW 09:34:46 10° SSE
STARLINK-1393 3.0 09:30:40 10° WNW 09:32:40 27° SW 09:34:46 10° SSE
STARLINK-1401 3.0 09:30:40 10° WNW 09:32:40 27° SW 09:34:47 10° SSE
STARLINK-1396 3.0 09:30:40 10° WNW 09:32:41 27° SW 09:34:47 10° SSE
STARLINK-1397 3.0 09:30:40 10° WNW 09:32:41 27° SW 09:34:47 10° SSE
STARLINK-1453 3.0 09:30:41 10° WNW 09:32:41 27° SW 09:34:47 10° SSE
STARLINK-1404 3.0 09:30:42 10° WNW 09:32:42 27° SW 09:34:49 10° SSE
STARLINK-1417 3.0 09:30:43 10° WNW 09:32:43 27° SW 09:34:50 10° SSE
STARLINK-1402 3.0 09:30:43 10° WNW 09:32:43 27° SW 09:34:50 10° SSE
STARLINK-1413 3.0 09:30:44 10° WNW 09:32:44 27° SW 09:34:51 10° SSE
STARLINK-1406 3.0 09:30:45 10° WNW 09:32:45 27° SW 09:34:51 10° SSE
STARLINK-1440 3.0 09:30:47 10° WNW 09:32:47 27° SW 09:34:53 10° SSE
STARLINK-1414 3.0 09:30:45 10° WNW 09:32:47 28° SW 09:34:56 10° SSE
STARLINK-1445 3.0 09:30:48 10° WNW 09:32:47 27° SW 09:34:54 10° SSE
STARLINK-1443 3.0 09:30:49 10° WNW 09:32:49 27° SW 09:34:54 10° SSE
STARLINK-1454 3.0 09:30:49 10° WNW 09:32:49 27° SW 09:34:55 10° SSE
STARLINK-1416 3.0 09:30:47 10° WNW 09:32:50 28° SW 09:34:58 10° SSE
STARLINK-1457 3.0 09:30:49 10° WNW 09:32:50 27° SW 09:34:56 10° SSE
STARLINK-1408 3.0 09:30:48 10° WNW 09:32:50 28° SW 09:34:59 10° SSE
STARLINK-1456 3.0 09:30:50 10° WNW 09:32:50 27° SW 09:34:57 10° SSE
STARLINK-1451 3.0 09:30:50 10° WNW 09:32:50 27° SW 09:34:57 10° SSE
STARLINK-1442 3.0 09:30:51 10° WNW 09:32:52 27° SW 09:34:58 10° SSE
STARLINK-1436 (VISORSAT) 3.0 09:30:50 10° WNW 09:32:52 28° SW 09:35:02 10° SSE
STARLINK-1419 3.0 09:30:51 10° WNW 09:32:54 28° SW 09:35:03 10° SSE
STARLINK-1405 3.0 09:30:54 10° WNW 09:32:55 27° SW 09:35:01 10° SSE
STARLINK-1398 3.0 09:30:51 10° WNW 09:32:55 28° SW 09:35:04 10° SSE
STARLINK-1421 3.0 09:30:54 10° WNW 09:32:55 27° SW 09:35:01 10° SSE
STARLINK-1410 3.0 09:30:55 10° WNW 09:32:56 27° SW 09:35:02 10° SSE
STARLINK-1400 3.0 09:30:55 10° WNW 09:32:56 27° SW 09:35:02 10° SSE
STARLINK-1407 3.0 09:30:56 10° WNW 09:32:56 27° SW 09:35:03 10° SSE
STARLINK-1439 3.0 09:30:56 10° WNW 09:32:57 27° SW 09:35:03 10° SSE
STARLINK-1409 3.0 09:30:57 10° WNW 09:32:57 27° SW 09:35:04 10° SSE
STARLINK-1422 3.0 09:30:55 10° WNW 09:32:58 28° SW 09:35:07 10° SSE
STARLINK-1351 3.0 09:30:58 10° WNW 09:32:58 27° SW 09:35:05 10° SSE
STARLINK-1370 3.0 09:30:58 10° WNW 09:32:58 27° SW 09:35:05 10° SSE
STARLINK-1418 3.0 09:30:58 10° WNW 09:32:59 27° SW 09:35:05 10° SSE
STARLINK-1420 3.0 09:30:55 10° WNW 09:32:59 28° SW 09:35:08 10° SSE
STARLINK-1434 3.0 09:30:59 10° WNW 09:32:59 27° SW 09:35:05 10° SSE
STARLINK-1403 3.0 09:31:00 10° WNW 09:33:00 27° SW 09:35:06 10° SSE
STARLINK-1460 3.1 09:30:58 10° WNW 09:33:01 28° SW 09:35:10 10° SSE
STARLINK-1433 3.0 09:31:01 10° WNW 09:33:02 27° SW 09:35:08 10° SSE
STARLINK-1411 3.0 09:31:02 10° WNW 09:33:02 27° SW 09:35:09 10° SSE
STARLINK-1438 3.0 09:31:03 10° WNW 09:33:03 27° SW 09:35:10 10° SSE
STARLINK-1458 3.0 09:31:01 10° WNW 09:33:04 28° SW 09:35:14 10° SSE
STARLINK-1423 3.1 09:31:04 10° WNW 09:33:07 27° SW 09:35:16 10° SSE
STARLINK-1446 3.1 09:31:05 10° WNW 09:33:08 28° SW 09:35:18 10° SSE
STARLINK-1437 3.1 09:31:07 10° WNW 09:33:10 27° SW 09:35:18 10° SSE
STARLINK-1447 3.1 09:31:09 10° WNW 09:33:12 28° SW 09:35:21 10° SSE
STARLINK-1455 3.1 09:31:09 10° WNW 09:33:13 27° SW 09:35:22 10° SSE
STARLINK-1441 3.1 09:31:10 10° WNW 09:33:14 27° SW 09:35:23 10° SSE
ERS-2 2.5 09:29:45 10° S 09:33:14 43° W 09:36:46 10° NNW
STARLINK-1448 3.1 09:31:13 10° WNW 09:33:17 27° SW 09:35:26 10° SSE
STARLINK-1449 3.1 09:31:14 10° WNW 09:33:18 27° SW 09:35:27 10° SSE
H-2A R/B 2.1 09:28:58 10° S 09:33:19 64° WSW 09:37:48 10° NNW
STARLINK-1412 3.1 09:31:24 10° WNW 09:33:26 27° SW 09:35:36 10° SSE
Cosmos 1151 Rocket 3.0 09:29:30 10° N 09:33:55 87° W 09:38:18 10° S
Cosmos 1766 Rocket 3.8 09:30:07 12° SSW 09:34:04 50° W 09:38:17 10° N
Okean 3 Rocket 4.1 09:30:43 12° SSW 09:34:38 43° WNW 09:38:59 10° N
deb Chang Zheng 4 4.4 09:30:45 10° NNE 09:34:53 48° E 09:39:00 10° S
STARLINK-1016 4.1 09:32:25 12° WSW 09:36:03 55° NW 09:40:08 10° NE
CZ-2C R/B 2.7 09:32:38 10° N 09:36:23 67° WNW 09:40:12 10° SSW
Cosmos 2151 4.0 09:34:37 13° SW 09:37:50 30° WNW 09:41:38 10° NNW
STARLINK-1008 4.2 09:37:13 11° WSW 09:41:05 50° NW 09:45:07 10° NE
SAR-Lupe-4 4.4 09:39:03 10° SSE 09:42:33 55° ENE 09:46:06 10° N
Cosmos 1515 Rocket 4.0 09:38:16 10° N 09:42:37 65° E 09:46:54 10° SSE
Cosmos 2333 Rocket 2.2 09:37:46 10° SSW 09:43:25 84° WNW 09:49:07 10° NNE
STARLINK-1014 4.3 09:42:06 10° WSW 09:46:04 46° NW 09:50:03 10° NE
Cosmos 2322 4.1 09:44:07 10° SW 09:49:40 52° WNW 09:55:17 10° NNE
Lacrosse 5 rocket 1.6 09:45:50 10° SSW 09:49:51 59° SE 09:53:40 10° NE
Cosmos 2219 Rocket 2.2 09:44:51 10° SSW 09:50:26 79° WNW 09:56:03 10° NNE
STARLINK-1025 4.5 09:47:07 10° WSW 09:51:04 43° NNW 09:55:02 10° NE
Meteor 1-26 Rocket 4.5 09:45:51 10° N 09:51:47 86° E 09:57:47 10° S
STARLINK-1032 4.4 09:49:24 10° SSW 09:53:21 45° SE 09:57:18 10° ENE
BREEZE-M DEB (TANK) 3.0 09:48:13 10° SW 09:53:22 59° SSE 09:56:09 10° ENE
STARLINK-29 3.4 09:51:50 10° WNW 09:54:49 38° SW 09:57:47 10° SSE
STARLINK-1037 4.3 09:52:44 10° SSW 09:56:43 49° SE 10:00:43 10° ENE
SAR-Lupe-1 4.1 09:54:39 10° SSE 09:58:11 83° ENE 10:01:47 10° N
BREEZE-M DEB (TANK) 3.0 09:55:44 10° NW 09:58:16 50° NE 10:03:41 10° ESE
STARLINK-1011 4.2 09:54:18 10° SSW 09:58:18 50° SE 10:02:19 10° ENE
Cosmos 2344 3.7 09:51:44 10° SSW 09:59:20 76° ESE 10:07:06 10° NE
Cosmos 1633 2.6 09:56:28 10° S 10:00:02 88° E 10:03:40 10° N
CZ-2C R/B 2.9 09:55:39 10° NNE 10:00:50 68° ESE 10:05:58 10° S
